Retour au catalogue

STARLINK-32720

ActifCommunicationsVLEO
NORAD 62451·PAYLOAD·🇺🇸 United States

Lancé Dec 29, 2024 depuis Vandenberg Space Force Base

Loading…

Prochains Passages (prochaines 24 heures)

TLE

FraisSource: CelesTrak SupGP

Époque: Sep 15, 2026, 03:11 UTC

1 62451C 24251V   26258.13312500  .00000110  00000+0  32525-5 0  2581
2 62451  53.1576 172.6091 0001413  70.1191 227.0138 15.34389591    13

Suivez STARLINK-32720 en temps réel avec AllMySat

Download on the App Store